Reflectivity
-20 -20 -20 3 9 12 15 8 -14 -20 -20 -7 -1 -20 -20 10 38 31 32 28 31 38 22 -20 -20 -20 -20 -20 -13 -20 1 13 21 19 33 22 27 6 -7 32 28 20 29 32 31 27 7 -20 -20 -20 -20 -20 -5 1
-20 -20 -20 10 4 5 8 -1 11 -20 -5 -20 -18 -20 -20 17 38 24 36 38 34 22 14 -9 -20 -2 -20 -20 -20 -19 -18 -20 -18 9 26 38 2 -5 -20 -20 -17 24 25 23 26 21 -17 -20 -20 -20 -20 -20 -20 -20
-20 -20 -20 -20 8 16 17 -20 -4 15 19 8 -20 3 10 29 31 9 28 23 28 33 31 24 4 -13 -14 -20 -20 -20 -20 -20 -19 22 9 27 34 -20 -16 -16 -20 -18 -20 6 14 7 -4 -11 14 -17 -20 -20 -20 -20
-20 -20 -20 -20 -17 29 27 -14 -18 20 30 19 -7 -8 17 18 18 2 20 15 4 -14 -19 15 13 3 16 -15 -20 -20 -20 -20 -18 -1 12 39 38 18 1 -20 -20 -19 -10 22 19 3 -11 21 11 -20 -20 -20 -20 -20
-20 -20 -20 -20 -20 21 11 14 -19 20 25 29 17 -3 -14 5 12 -3 2 -2 5 4 2 12 14 -7 -20 -18 -5 -16 -13 -8 23 22 22 33 33 34 27 -14 -13 -17 -18 -13 -17 -1 11 12 2 -6 -20 -20 -20 -20
-20 -20 -20 -20 -20 28 21 23 -15 16 -5 19 30 19 12 15 22 33 36 4 -16 19 3 -20 -20 -4 -20 -20 -16 7 4 1 7 33 10 27 35 27 21 25 -20 -20 2 7 26 29 11 -7 -20 -20 -20 -20 -20 -20
-20 -20 -20 -20 -20 28 18 24 11 18 13 13 32 35 18 29 8 13 14 -2 -12 -20 -20 6 4 -20 -20 -20 -11 25 10 14 20 27 17 7 33 19 12 -20 -20 -17 10 9 -5 -3 3 9 -2 -20 -20 -20 -20 -20
-20 -20 -20 -20 -20 -2 14 11 19 18 18 16 35 33 35 32 13 -20 -13 -20 -20 -13 22 18 -11 -15 -7 15 1 12 12 29 22 20 35 33 37 34 18 -20 -20 -20 -7 6 -20 -0 -10 -3 3 -16 -20 -20 -20 -20
-20 -20 -20 -20 -20 -20 4 20 19 27 35 28 31 27 31 22 25 29 23 25 -7 26 8 -17 -20 -20 -3 -9 15 18 24 19 19 13 4 12 16 24 6 -9 -13 -20 -20 5 -16 -20 -20 -20 -20 -20 -20 -20 -20 -20
-20 -20 -20 -20 -20 -20 -20 14 24 35 31 24 27 31 20 36 34 35 35 30 33 34 11 -20 -20 -9 -20 -20 -20 -20 -18 8 16 5 32 22 18 7 -5 -20 -20 -20 -10 2 -20 -20 -20 -20 -20 -20 -20 -20 -20 -20
-15 -20 -20 -20 -20 -20 -20 -20 9 29 32 35 33 15 29 33 24 23 16 15 3 -13 -14 -20 -20 -20 -14 -20 -20 -8 -20 -9 0 12 -1 5 -20 -20 -20 -20 -20 -20 -20 -20 -20 -20 -20 -20 -20 -20 -20 -20 -20 -20
-20 -20 -20 -20 -20 -20 -20 -20 -20 -17 0 20 29 27 24 12 -9 -1 -16 -20 -20 -20 -20 -20 -17 -20 -8 -20 -20 -20 -20 -19 -16 -7 9 -8 -20 -20 -20 -20 -20 -18 -20 -20 -20 -20 -20 -20 -20 -2 6 3 0 5
2 -20 -20 -20 -20 -20 -20 -20 -20 -20 -20 8 11 17 18 13 -17 -20 -20 -20 -20 -20 -14 3 -19 -20 -6 -20 -20 -20 -20 -20 -20 -20 -20 -20 -0 -20 -20 -20 -20 -20 -20 -13 -20 -20 -20 -20 -20 -19 -19 -19 -16 -19
4 -20 -20 -20 -20 -20 -20 -19 -11 2 -8 -20 -20 -20 -1 3 -20 -20 -20 -20 -20 -20 -20 -20 -20 -20 -20 -20 -20 -19 -7 7 -20 -20 -20 -20 -12 -4 -20 -20 -20 -16 10 6 -1 4 -13 -20 -20 -20 -20 -20 -20 -20
7 -20 -20 -20 -20 -20 -20 -20 -20 -20 -20 -20 -20 -20 -20 -20 -20 -20 -20 -20 -20 -20 -20 -20 -19 -20 -20 -15 3 -20 2 -19 -20 -20 -20 -20 -20 -20 -20 -17 -19 -13 5 1 -20 -20 -20 -20 -20 -20 -20 -20 -20 -20
-8 -20 -20 -20 -20 -20 -20 -20 -20 -20 -20 -20 -20 -20 -20 -20 -20 -4 -13 -3 -5 -9 -11 16 5 -9 -20 4 -14 -17 -20 -20 -20 -20 -20 -20 -20 -20 -20 -20 -20 -20 -20 -20 -20 -20 -20 -20 -20 -20 -20 -20 -20 -20
-1 -20 -20 -20 -20 -20 -20 -20 -20 -20 -20 -20 -20 -20 -20 -20 -20 -20 -20 -16 29 -18 -13 8 -2 -20 -20 -15 -20 -20 -9 -20 -20 -20 -20 -20 -12 -20 -16 -16 -12 -5 -13 -16 -20 -20 -20 -20 -20 -20 -20 -20 -20 -20
-20 -20 -20 -20 -20 -20 -20 -20 -20 -20 -20 -20 -20 -20 -20 -20 -20 -17 -5 -19 -20 -13 -14 5 -10 -12 -16 -20 -5 -4 -12 -8 -20 -9 -20 -20 -9 -7 -5 -4 -6 -18 -20 -20 -20 -20 -20 -20 -20 -20 -20 -20 -20 -20
-20 -20 -20 -20 -20 -20 -20 -20 -20 -20 -20 -17 -17 -20 -20 -9 -16 -20 -20 -20 -20 -20 -20 -20 -20 -20 -20 -20 -19 -7 -16 -20 -11 -11 -17 -20 -19 -20 -20 -9 -5 -20 -20 -20 -20 -20 -20 -20 -20 -20 -20 -20 -20 -20
-20 -20 -20 -20 -20 -20 -20 -20 -20 -20 -20 -3 -20 -20 -20 1 -20 -20 -20 -19 -9 -15 -20 -20 -20 -20 -20 -20 -20 -20 -20 -20 -20 -20 -20 -20 -20 -20 -20 -20 -20 -20 -20 -20 -20 -20 -20 -20 -20 -20 -20 -20 -20 -20
-20 -20 -20 -20 -20 -20 -20 -20 -20 -20 -20 -20 -20 -20 15 12 -20 -20 -20 -20 -20 -20 -20 -20 -20 -20 -20 -20 -20 -20 -20 -20 -20 -20 -20 -20 -20 -20 -20 -20 -20 -20 -20 -20 -20 -20 -20 -20 -20 -20 -20 -20 -20 -20
-20 -20 -20 -20 -20 -20 -20 -20 -20 -20 -20 -2 -20 -20 -20 -18 -20 -20 -20 -20 -20 -20 -20 -20 -20 -20 -20 -20 -20 -20 -19 -12 -7 -12 -20 -20 -20 -20 -20 -20 -20 -20 -20 -20 -20 -20 -20 -20 -20 -20 -20 -20 -20 -20
-20 -20 -20 -20 -20 -20 -20 -20 -20 -20 18 17 -19 -20 -20 -20 -20 -20 -20 -20 -20 -19 -20 -20 -20 -20 -20 -20 -20 -20 -20 -20 -20 -20 -20 -20 -20 -20 -20 -20 -20 -20 -20 -20 -20 -20 -20 -20 -20 -20 -20 -20 -20 -20
-20 -20 -20 -20 -20 -20 -20 -20 -20 -20 -20 -20 -20 -20 -20 -20 -20 -20 -20 -20 -20 -20 -20 -16 -20 -12 -20 -20 -20 -20 -20 -20 -20 -20 -20 -20 -20 -20 -20 -20 -20 -20 -20 -20 -20 -20 -20 -20 -20 -20 -20 -20 -20 -20
-20 -20 -20 -20 -20 -20 -20 -20 -20 -20 -20 -20 -20 -19 -20 -20 -20 -20 -20 -20 -20 -20 -20 -20 -20 -20 -20 -20 -20 -20 -20 -20 -20 -20 -20 -20 -20 -20 -20 -20 -20 -20 -20 -20 -20 -20 -20 -20 -20 -20 -20 -20 -20 -20
-20 -20 -20 -20 -20 -20 -20 -20 -20 -20 -20 -20 -20 -20 -20 -20 -20 -20 -20 -20 -20 -20 -20 -20 -20 -20 -20 -20 -20 -20 -20 -20 -20 -20 -20 -20 -20 -20 -20 -20 -20 -20 -20 -20 -20 -20 -20 -20 -20 -20 -20 -20 -20 -20
-20 -20 -20 -20 -20 -20 -20 -20 -20 -20 -20 -20 -20 -20 -20 -20 -20 -20 -17 -20 -20 -20 -20 -20 -20 -20 -20 -20 -20 -20 -20 -20 -20 -20 -20 -20 -20 -20 -20 -20 -20 -20 -20 -20 -20 -20 -20 -20 -20 -20 -20 -20 -20 -20
-20 -20 -20 -20 -20 -20 -20 -20 -20 -20 -20 -20 -20 -20 -20 -20 -20 -20 -20 -17 -20 -20 -20 -20 -20 -20 -20 -20 -20 -20 -20 -20 -20 -20 -20 -20 -20 -20 -20 -20 -20 -20 -20 -20 -20 -20 -20 -20 -20 -20 -20 -20 -20 -20
-20 -20 -20 -20 -20 -20 -20 -20 -20 -20 -20 -20 -20 -20 -20 -20 -18 -20 -19 -20 -20 -20 -20 -20 -20 -20 -20 -20 -20 -20 -20 -20 -20 -20 -20 -20 -20 -20 -20 -20 -20 -20 -20 -20 -20 -20 -20 -20 -20 -20 -20 -20 -20 -20
-20 -20 -20 -20 -20 -20 -20 -20 -20 -20 -20 -20 -20 -20 -19 -14 5 0 5 5 -20 -20 -20 -20 -20 -20 -20 -20 -20 -20 -20 -20 -15 -17 -20 -20 -20 -20 -20 -20 -20 -20 -20 -20 -20 -20 -20 -20 -20 -20 -20 -20 -20 -20
-20 -20 -20 -20 -20 -20 -20 -20 -20 -20 -20 -20 -20 -20 -20 -12 -10 -5 -19 -9 -20 -20 -20 -20 -20 -20 -20 -20 -20 -20 -20 -20 -20 -20 -20 -20 -20 -20 -20 -20 -20 -20 -20 -20 -20 -20 -20 -20 -20 -20 -20 -20 -20 -20
-20 -20 -20 -20 4 1 -20 -20 -20 -20 -20 -20 -20 -20 -20 -20 -20 -18 1 -4 -12 -20 -20 -20 -20 -20 -20 -20 -20 -20 -20 -20 -20 -20 -20 -20 -20 -20 -20 -20 -20 -20 -20 -20 -20 -20 -20 -20 -20 -20 -20 -20 -20 -20
-20 -20 -20 -20 -13 -6 -20 -20 -20 -14 -17 -20 -16 -20 -20 -20 -20 -20 -18 -9 -10 -20 -20 -20 -20 -20 -20 -20 -20 -20 -20 -20 -20 -20 -20 -20 -20 -20 -20 -20 -20 -20 -20 -20 -20 -20 -20 -20 -20 -20 -20 -20 -20 -20
Wind_Speed
22 23 25 27 27 29 29 30 26 20 21 20 19 18 19 23 27 15 8 8 11 4 3 2 9 12 11 15 12 6 5 5 4 10 8 7 8 10 7 5 6 12 10 6 4 6 17 7 4 16 1 1 2 2
22 22 24 26 27 29 28 29 17 17 11 3 6 16 26 21 38 19 7 2 3 6 4 3 3 2 11 15 11 4 6 5 9 8 4 5 4 4 11 10 4 8 7 9 11 7 4 6 1 3 3 1 2 0
21 21 24 26 27 28 28 25 10 14 5 12 19 22 35 33 29 15 5 5 4 5 4 5 4 1 1 4 5 9 3 2 2 2 2 2 8 6 7 7 6 6 2 3 3 6 6 4 3 2 3 3 1 2
20 20 23 24 25 29 28 16 7 7 3 10 19 24 20 15 15 10 6 2 6 5 5 2 2 0 1 5 6 5 2 0 4 3 3 6 4 3 4 5 4 5 9 7 4 3 1 5 7 7 5 4 7 7
19 19 22 23 22 27 30 15 9 4 5 13 13 19 20 20 19 11 5 3 1 7 4 3 2 3 2 5 10 8 9 10 4 6 4 4 4 5 2 1 4 9 9 8 5 6 2 4 11 9 9 8 9 14
17 18 20 21 20 24 24 22 10 2 5 6 21 20 22 22 19 6 3 3 4 5 6 4 1 2 1 3 4 11 9 5 3 3 4 3 7 3 6 5 5 12 10 5 4 9 4 1 3 7 9 12 11 12
16 17 19 18 17 21 25 22 18 4 10 12 13 16 20 11 5 4 3 3 5 4 4 3 0 1 0 2 1 1 1 2 2 3 5 2 4 3 2 5 5 13 13 10 8 11 2 4 4 9 12 13 14 14
14 15 16 17 17 12 20 22 24 4 15 16 18 22 20 19 9 6 6 4 5 6 3 4 2 2 4 2 2 1 0 2 3 2 2 3 2 1 5 6 3 9 11 10 12 3 5 9 11 12 15 17 17 15
13 13 14 15 15 12 10 17 20 21 19 22 23 18 7 6 3 2 12 10 4 3 5 3 6 4 3 1 1 1 0 2 1 3 2 2 4 6 6 8 11 11 12 11 9 7 12 12 14 14 15 15 17 15
11 12 12 13 12 10 6 6 12 13 15 13 7 4 3 3 16 5 5 3 3 3 2 3 2 4 3 2 1 1 1 1 2 1 2 3 4 7 5 4 6 8 8 15 12 9 10 13 15 16 15 13 14 15
10 11 11 12 13 11 7 1 3 6 6 3 3 3 2 3 2 3 3 2 2 2 1 2 2 4 0 2 2 1 2 1 2 2 3 2 5 3 8 8 4 5 10 13 11 11 15 17 18 16 14 13 13 14
9 10 10 11 13 12 9 4 5 2 1 4 6 4 2 2 2 4 2 3 2 3 4 4 3 2 2 1 2 2 0 1 2 2 1 4 4 3 3 4 5 7 10 9 11 13 13 14 14 15 12 12 12 13
9 9 10 10 12 13 10 5 8 13 10 2 3 3 1 1 6 4 5 2 2 4 4 4 4 2 2 1 2 1 2 2 1 2 4 4 3 3 5 6 7 8 10 11 13 12 15 14 12 14 14 11 14 12
9 8 9 10 10 12 6 3 9 2 3 3 3 3 2 0 0 1 2 3 2 3 6 4 3 2 2 2 2 2 1 2 3 3 4 3 4 4 7 6 10 10 10 12 14 14 15 15 13 10 11 12 13 12
10 8 8 9 7 11 7 11 10 3 2 2 3 2 1 2 2 1 2 3 2 4 4 4 3 2 2 2 1 2 2 5 5 3 2 3 2 6 7 9 10 11 9 11 11 12 12 13 14 12 9 11 13 11
7 6 4 4 8 8 9 10 3 2 2 2 4 2 1 2 2 2 3 3 2 2 3 2 2 2 1 1 2 4 3 4 2 1 2 1 3 8 8 8 9 10 10 11 10 11 12 13 14 13 12 12 10 12
5 3 3 4 7 3 4 3 2 3 2 3 2 1 1 2 3 2 2 2 2 2 2 2 3 2 3 1 2 3 3 2 3 2 3 2 6 10 10 10 10 10 12 13 13 12 13 12 13 14 16 10 12 13
3 2 4 3 2 2 3 3 3 2 3 2 1 1 2 1 3 4 2 1 2 2 2 3 3 4 3 3 2 2 1 2 4 5 6 6 8 10 9 13 11 12 13 11 12 12 12 12 14 11 12 12 12 12
4 3 4 4 4 3 3 3 3 3 2 0 2 1 2 2 2 2 1 0 1 0 2 1 2 1 0 0 2 3 5 3 4 5 7 10 8 11 12 13 13 13 12 10 10 9 8 10 11 9 8 7 9 7
5 1 4 4 2 3 3 2 2 3 2 1 2 2 2 2 1 2 2 3 2 1 4 3 2 2 2 2 1 5 6 7 8 9 8 8 6 10 10 10 9 11 11 12 11 11 10 9 8 7 7 8 8 7
3 0 6 3 3 4 4 1 3 1 2 3 1 2 2 2 3 3 3 3 4 3 3 3 3 3 4 5 6 5 5 2 3 5 7 8 6 8 9 8 10 8 9 7 8 7 8 8 7 6 7 6 6 6
2 4 3 4 4 3 4 2 2 2 3 2 2 2 3 2 2 3 3 5 3 2 2 2 2 2 5 6 6 7 9 12 12 12 12 10 9 8 7 6 8 8 7 7 7 8 8 6 6 6 7 6 5 5
6 4 4 3 6 5 2 1 2 2 3 2 1 3 2 2 1 2 4 1 1 2 2 3 4 5 8 6 9 10 7 14 10 9 9 8 8 7 7 7 7 9 8 5 6 7 7 6 6 7 6 6 5 4
5 5 4 3 4 2 1 3 2 2 2 3 3 2 2 1 2 4 3 2 1 1 3 3 4 7 6 9 6 6 6 8 9 9 6 9 9 8 8 7 7 7 7 7 7 7 6 6 6 6 5 6 4 4
8 4 6 4 3 5 4 2 3 4 2 1 4 2 1 1 3 3 1 1 1 2 2 2 5 6 6 5 4 5 6 5 9 9 6 7 9 8 8 8 8 6 3 7 6 7 6 6 6 7 6 5 4 4
6 3 5 5 1 4 4 4 4 4 4 4 2 2 2 3 4 1 1 1 1 1 2 3 6 5 5 3 5 5 3 3 8 9 5 4 5 8 7 7 6 5 6 6 7 9 8 6 6 6 5 5 5 4
4 1 1 0 3 4 4 3 3 4 4 4 3 3 3 4 2 1 2 2 1 2 1 1 2 6 7 6 6 6 6 8 10 9 8 9 9 7 5 6 7 4 5 7 7 7 8 6 5 5 5 4 4 4
3 3 6 2 3 1 6 3 3 4 4 2 4 4 4 4 2 2 2 3 5 5 7 8 8 7 8 8 7 8 9 10 12 12 12 12 10 9 10 9 9 12 8 7 8 7 7 6 5 5 5 5 4 4
2 1 5 5 3 4 2 3 3 1 2 3 5 3 3 3 3 3 2 4 5 5 8 9 8 7 9 8 8 7 5 4 9 14 15 8 6 6 5 6 7 7 7 9 11 10 10 8 8 7 7 6 4 4
0 1 5 3 5 3 2 1 2 1 2 3 5 5 4 3 4 5 3 5 6 6 6 7 5 6 8 9 7 8 7 6 4 6 7 8 7 5 4 6 6 5 5 7 7 7 8 7 6 5 7 6 5 5
2 3 5 4 4 3 6 3 5 6 4 6 6 8 6 4 3 6 8 5 6 6 8 8 8 6 7 6 6 7 6 7 8 13 13 10 8 7 6 5 5 5 6 7 7 8 7 7 6 7 8 8 7 6
4 4 5 4 4 2 2 4 4 5 4 5 4 3 3 4 5 5 7 6 4 7 6 7 8 5 5 6 7 9 13 8 8 9 12 9 8 7 7 6 6 7 9 9 8 7 9 9 7 7 7 7 7 6
3 3 5 4 3 3 3 5 4 4 4 3 4 2 3 3 4 1 3 7 4 5 7 8 8 8 10 11 11 9 10 10 14 15 14 12 11 9 6 6 7 8 10 9 8 8 10 11 9 8 7 6 6 6
Wind_Direction
310 312 313 312 316 319 317 315 305 302 302 281 220 211 210 205 164 144 156 154 169 113 80 148 161 164 178 200 199 188 141 200 165 222 239 183 206 200 175 178 179 183 170 172 163 206 250 149 132 181 105 10 293 245
313 315 315 317 323 326 326 321 306 325 330 233 184 236 226 209 156 141 115 71 104 90 119 76 63 23 196 199 187 175 223 145 190 194 228 247 166 169 166 224 172 211 195 171 194 209 157 196 208 130 123 89 348 164
316 318 319 318 328 332 330 322 321 358 40 106 94 92 114 132 143 130 122 134 115 114 105 139 141 158 47 148 116 189 250 131 215 98 238 237 254 149 176 195 126 214 143 160 129 195 210 200 261 142 136 128 57 330
318 322 322 321 329 337 333 320 322 344 25 124 120 121 117 128 126 100 92 303 87 110 101 100 114 261 178 163 166 149 171 146 257 168 184 237 263 264 190 170 146 139 144 172 261 251 187 219 223 194 174 120 120 127
320 325 324 326 329 343 338 328 320 334 42 163 146 123 100 97 88 72 71 16 44 107 116 143 133 201 199 196 215 184 200 215 212 217 172 240 211 149 304 143 170 166 165 186 210 167 157 220 202 169 157 176 159 139
320 327 327 331 335 347 346 356 338 96 89 107 170 132 121 122 121 114 83 335 4 102 127 146 33 180 154 219 266 225 224 214 190 277 178 213 254 224 164 197 206 172 172 155 162 187 158 87 107 155 153 153 150 135
318 326 330 336 338 356 354 4 358 167 130 90 112 149 143 133 64 84 155 167 175 77 78 88 257 220 76 92 48 116 59 137 167 209 219 166 259 213 163 205 177 185 178 173 157 119 91 224 202 147 126 121 113 108
314 324 330 339 339 358 357 3 8 39 134 111 92 100 84 91 68 35 16 70 44 79 86 135 168 202 174 177 195 215 158 143 184 245 222 195 28 238 225 222 172 164 161 170 173 101 139 119 125 128 127 126 121 127
307 317 326 336 335 348 9 356 10 30 75 111 107 81 45 40 79 126 103 76 56 91 134 140 159 182 119 142 126 156 291 206 254 228 252 229 149 227 229 189 188 167 170 173 160 129 140 138 138 135 133 132 125 133
297 310 321 333 333 342 5 343 358 31 42 55 51 52 64 57 132 105 21 35 40 16 36 96 164 135 163 158 108 187 245 235 218 59 345 252 232 238 237 234 193 174 143 143 131 139 131 134 142 146 145 136 134 141
286 301 315 328 335 338 346 11 293 21 57 43 60 63 62 310 47 44 88 95 98 74 113 123 110 123 274 152 153 214 212 259 232 120 260 271 263 253 185 199 198 158 159 173 172 157 162 153 147 143 142 136 135 137
274 292 309 323 329 329 332 312 155 57 94 139 106 96 73 45 49 100 67 128 175 169 172 144 139 123 134 150 139 173 212 307 213 141 189 246 250 266 165 153 154 155 160 143 137 131 130 138 141 138 134 138 124 114
266 282 301 317 325 324 338 88 89 111 119 114 77 81 103 329 53 114 150 170 160 166 172 165 139 116 130 109 85 131 188 233 147 236 240 245 310 276 115 112 109 118 116 114 107 113 121 115 116 133 123 113 121 119
263 273 295 310 316 320 337 207 137 174 44 79 112 77 156 337 238 184 158 143 160 141 153 110 101 110 108 88 129 149 159 197 231 236 249 288 287 104 106 109 120 119 124 117 117 121 120 120 113 102 111 127 123 122
264 266 293 299 313 314 297 168 123 60 66 74 78 112 117 97 86 94 122 113 81 130 123 107 70 86 119 145 205 125 194 230 222 224 242 307 324 102 115 109 117 112 110 107 116 114 112 116 114 100 96 102 104 105
249 283 248 275 325 329 112 110 66 73 54 58 47 72 95 124 109 121 99 100 71 104 95 87 106 122 154 142 155 211 200 237 253 244 315 5 103 95 87 83 94 94 99 101 97 102 105 109 109 100 85 87 95 108
195 239 243 322 338 76 139 84 82 59 85 61 75 86 96 82 95 98 106 96 81 104 94 120 132 177 106 251 228 196 234 328 342 7 6 21 116 108 98 88 85 98 99 98 97 93 97 104 108 100 99 97 99 97
208 257 275 310 2 66 44 41 89 82 77 40 95 44 63 4 111 83 91 125 144 152 189 203 136 179 177 202 209 164 106 52 52 51 52 64 95 98 101 98 89 93 94 91 98 102 102 100 95 101 109 108 99 95
206 203 257 286 180 101 85 31 47 96 92 25 100 50 62 66 39 69 1 200 189 231 129 52 72 76 194 87 141 134 141 134 95 65 59 53 65 87 90 86 87 87 86 92 98 92 88 86 107 110 110 111 102 108
163 60 91 101 138 88 87 38 34 81 83 53 67 44 59 59 351 1 19 26 24 76 48 40 19 355 333 7 55 129 129 131 119 96 73 63 61 81 84 98 100 109 99 90 79 88 92 85 87 107 109 115 118 121
134 182 67 74 53 61 85 86 63 79 107 76 90 97 65 20 4 16 7 346 54 28 51 32 24 18 35 71 79 97 94 98 83 111 125 103 75 91 89 80 84 86 94 96 98 87 86 102 117 111 106 94 94 102
163 111 82 22 76 53 70 12 113 124 78 78 56 53 61 60 14 5 316 46 53 15 25 95 90 86 83 61 63 68 95 90 89 90 88 101 99 92 92 100 105 95 89 96 104 105 102 103 101 97 102 101 102 102
113 66 56 53 73 50 87 7 86 46 99 108 53 70 30 52 333 312 66 66 74 15 30 79 81 82 92 82 90 69 81 99 90 87 91 89 83 80 84 72 83 100 97 72 88 99 100 100 95 104 107 98 99 93
52 63 73 79 90 167 16 30 74 84 69 77 89 89 38 53 357 50 74 50 2 327 84 91 121 98 71 67 66 63 57 92 92 74 71 95 83 64 70 74 71 70 88 104 93 94 92 92 100 92 93 96 86 88
82 335 89 46 358 82 76 49 23 67 95 92 87 81 340 53 72 48 73 18 39 86 66 65 63 73 94 88 74 69 29 94 103 94 43 93 108 100 81 75 69 59 77 101 92 96 90 90 85 87 80 77 84 69
85 273 104 165 201 116 170 125 155 153 117 73 95 88 59 84 74 105 43 10 112 164 171 131 125 100 68 69 115 85 62 68 101 91 60 49 89 112 112 105 94 50 28 93 111 104 97 87 88 90 86 72 57 39
103 219 147 171 116 106 76 69 99 99 103 140 165 102 87 86 162 145 107 19 71 57 40 45 95 111 124 111 85 61 60 58 76 90 80 59 48 37 83 108 99 82 78 86 91 103 111 105 92 79 81 73 51 36
148 146 135 211 83 70 122 90 115 143 159 135 98 71 115 146 109 69 71 68 86 86 80 64 60 80 94 97 98 101 90 97 99 99 87 63 49 48 60 69 72 77 77 73 85 80 84 89 89 83 77 79 73 44
82 103 98 51 66 60 86 136 164 119 117 104 109 116 96 63 14 15 62 95 104 115 99 95 79 89 85 76 63 58 74 101 112 97 95 101 92 47 31 71 76 74 82 84 79 80 80 82 83 81 72 70 61 50
191 107 96 71 77 61 325 1 92 93 46 86 102 107 80 63 14 356 51 88 93 98 94 97 100 111 110 107 96 64 34 22 47 122 129 131 124 125 102 90 86 81 84 90 96 88 67 69 68 58 59 55 44 37
94 79 76 69 76 58 103 111 77 65 55 63 47 94 98 122 81 33 29 37 96 106 105 101 89 79 102 104 109 104 82 21 56 83 93 101 108 108 101 91 89 89 88 87 81 81 85 74 73 72 64 58 44 36
40 85 114 99 103 117 72 61 56 75 71 78 75 61 50 61 65 26 2 337 100 91 85 104 104 85 70 83 75 70 90 102 93 92 97 100 99 99 98 98 90 87 87 86 87 91 90 88 80 72 69 59 47 37
58 46 60 83 88 102 19 90 75 83 44 57 45 62 56 77 100 46 34 16 26 84 97 93 89 83 80 83 90 89 80 81 83 84 83 87 93 100 97 90 91 93 94 95 92 93 87 87 80 74 69 63 54 43